UGTBUGKO

Guest
Details From UGTB - Tbilisi
To UGKO - Kopitnari
Flight Number -
Tags Generated
Created
Modified
Stats Distance 115 nm / 212 km
Max Altitude 0 ft / 0 m
Waypoints 2
Social Downloads 1
Likes 0
Share VATSIM

Download

Looking for another format? Having issues loading an existing format? Contact us
Advertisement - Login to hide

Notes

Generated

Route

UGTB UGKO

ID Type Via Altitude Latitude Longitude Leg Dist Tot Dist Heading (true) Name
O UGTB APT - 0 ft / 0 m 41.67691˚ 44.94389˚ - 0 nm - -
O UGKO APT - 0 ft / 0 m 42.17482˚ 42.46768˚ 114 nm 114 nm 286° / 284° -

Altitude Profile

Advertisement - Login to hide

UGTB

Details ICAO UGTB (TBS)
Name TBILISI
Region Georgia
Timezone Asia/Tbilisi (UTC+4.0)
Stats Elevation 1,624 ft / 495 m (AMSL)
Location 41.668582° 44.953644°
Runways 2
Magnetic Variation 6.681° E

METAR

UGTB 210800Z 19005KT 120V290 CAVOK 25/11 Q1019 NOSIG

Decode

TAF

TAF UGTB 202300Z 2100/2124 VRB02KT 9999 BKN050CB TX25/2112Z TN17/2102Z PROB30 TEMPO 2101/2107 SHRA PROB40 TEMPO 2116/2124 VRB12KT TSRA BKN040CB

Decode

Departure Runways

ID Width Length Bearing (true) Bearing (mag) Surface Threshold Offset Overrun Length
13L 196 ft / 60 m 8,208 ft / 2,502 m 133.64° 126.96° Asphalt 0 ft / 0 m 0 ft / 0 m
13R 147 ft / 45 m 9,839 ft / 2,999 m 136.65° 129.97° Concrete 0 ft / 0 m 155 ft / 47 m
31L 147 ft / 45 m 9,839 ft / 2,999 m 316.67° 309.99° Concrete 0 ft / 0 m 150 ft / 46 m
31R 196 ft / 60 m 8,208 ft / 2,502 m 313.65° 306.97° Asphalt 0 ft / 0 m 0 ft / 0 m

UGKO

Details ICAO UGKO (KUT)
Name KOPITNARI
Region Georgia
Timezone Asia/Tbilisi (UTC+4.0)
Stats Elevation 223 ft / 68 m (AMSL)
Location 42.176653° 42.482583°
Runways 1
Magnetic Variation 6.772° E

METAR

UGKO 210800Z 23006KT 200V260 3500 SHRA SCT011CB OVC049 19/18 Q1017 R07/2///50 NOSIG

Decode

TAF

TAF UGKO 202300Z 2100/2124 VRB02KT 9999 SCT026 OVC045 TX22/2111Z TN16/2101Z TEMPO 2102/2112 25014KT 5000 TSRA BKN017CB

Decode

Destination Runways

ID Width Length Bearing (true) Bearing (mag) Surface Threshold Offset Overrun Length
08 144 ft / 44 m 8,171 ft / 2,490 m 80.55° 73.78° Concrete 0 ft / 0 m 60 ft / 18 m
26 144 ft / 44 m 8,171 ft / 2,490 m 260.57° 253.80° Concrete 0 ft / 0 m 60 ft / 18 m

Popular Alternatives